This is the latest recevied weather packets stored in our database for station/object EW8324. If no packets are shown the sender has not sent any weather packets the latest 10 day(s).
| Time | Temp. | Humidity | Pressure | Rain* | Wind** | Luminosity | Snow |
|---|---|---|---|---|---|---|---|
| 1777827865 | 27.22° C | 38% | 1018.3 hPa | 0.51 mm | - | 883 W/m² | - |
| 1777827564 | 27.22° C | 40% | 1018.2 hPa | 0.51 mm | - | 879 W/m² | - |
| 1777827319 | 26.67° C | 44% | 1018.3 hPa | 0.25 mm | - | 870 W/m² | - |
| 1777826968 | 26.67° C | 41% | 1018.3 hPa | 0.25 mm | - | 869 W/m² | - |
| 1777826665 | 26.67° C | 39% | 1018.4 hPa | 0.25 mm | - | 858 W/m² | - |
| 1777826365 | 27.22° C | 41% | 1018.4 hPa | 0.25 mm | - | 844 W/m² | - |
| 1777826063 | 27.22° C | 41% | 1018.4 hPa | 0.51 mm | - | 839 W/m² | - |
| 1777825764 | 26.67° C | 42% | 1018.4 hPa | 0.51 mm | - | 835 W/m² | - |
| 1777825463 | 26.67° C | 42% | 1018.4 hPa | 0.51 mm | - | 828 W/m² | - |
| 1777825168 | 26.67° C | 44% | 1018.4 hPa | 0.51 mm | - | 816 W/m² | - |
| 1777824862 | 26.11° C | 47% | 1018.5 hPa | 0.51 mm | - | 805 W/m² | - |
| 1777824571 | 26.11° C | 43% | 1018.5 hPa | 0.25 mm | - | - | - |
| 1777824261 | 26.11° C | 45% | 1018.5 hPa | 0.25 mm | - | - | - |
| 1777824023 | - | - | 1018.4 hPa | 0.25 mm | - | - | - |
| 1777823659 | - | - | 1018.5 hPa | 0.25 mm | - | - | - |
| 1777823363 | - | - | 1018.5 hPa | 0.51 mm | - | - | - |
| 1777823059 | 25.56° C | 47% | 1018.4 hPa | 0.51 mm | - | 728 W/m² | - |
| 1777822761 | 25° C | 47% | 1018.4 hPa | 0.51 mm | - | 721 W/m² | - |
| 1777822519 | 25° C | 49% | 1018.5 hPa | 0.25 mm | - | 709 W/m² | - |
| 1777822161 | 25° C | 52% | 1018.4 hPa | 0.25 mm | - | 696 W/m² | - |
| 1777821859 | 25° C | 50% | 1018.3 hPa | 0.25 mm | - | 672 W/m² | - |
| 1777821559 | 24.44° C | 51% | 1018.3 hPa | 0.25 mm | - | 670 W/m² | - |
| 1777821257 | 24.44° C | 53% | 1018.3 hPa | 0.25 mm | - | 656 W/m² | - |
| 1777820959 | 23.89° C | 55% | 1018.2 hPa | 0.25 mm | - | 642 W/m² | - |
| 1777820720 | 23.89° C | 54% | 1018.2 hPa | 0.25 mm | - | 626 W/m² | - |
* Rain latest hour (hover to see other rain measurements)
** Current wind speed in m/s (hover to see current wind gust speed)